Coeur d'Alene, ID

11:08 AM PDT on June 25, 2017 (GMT -0700)
Coeur D'Alene

Weather History for KCOE - November, 2012

Change the Weather History Date:

Wednesday, November 28, 2012

  Actual Average Record
Temperature  
Mean Temperature 32 °F -  
Max Temperature 37 °F 36 °F 53 °F (2014)
Min Temperature 28 °F 27 °F 12 °F (2006)
Degree Days  
Heating Degree Days 32    
Moisture  
Dew Point 28 °F    
Average Humidity 81    
Maximum Humidity 100    
Minimum Humidity 70    
Precipitation  
Precipitation 0.00 in - - ()
Sea Level Pressure  
Sea Level Pressure 29.93 in    
Wind  
Wind Speed 11 mph (NE)    
Max Wind Speed 21 mph    
Max Gust Speed 24 mph    
Visibility 10 miles    
Events      
Averages and records for this station are not official NWS values.
T = Trace of Precipitation, MM = Missing Value Source: NWS Daily Summary

Daily Weather History Graph

Daily Weather History Graph

Search for Another Location

Airport or City:

Trip Planner

Search our weather history database for the weather conditions in past years. The results will help you decide how hot, cold, wet, or windy it might be!

Date:

Astronomy

Nov. 28, 2012 Rise Set
Actual Time 7:12 AM PST 3:58 PM PST
Civil Twilight 6:37 AM PST 4:33 PM PST
Nautical Twilight 5:58 AM PST 5:12 PM PST
Astronomical Twilight 5:21 AM PST 5:49 PM PST
Moon 4:16 PM PST (11/28) 7:13 AM PST (11/28)
Length of Visible Light 9h 56m
Length of Day
8h 46m
Full, 100% of the Moon is Illuminated
Nov 28
Full
Dec 6
Last Quarter
Dec 13
New
Dec 19
First Quarter
Dec 28
Full

Hourly Weather History & Observations

Time (PST) Temp. Windchill Dew Point Humidity Pressure Visibility Wind Dir Wind Speed Gust Speed Precip Events Conditions
12:15 AM 30.2 °F 21.9 °F 26.6 °F 86% 30.10 in 10.0 mi ENE 9.2 mph - N/A   Clear
12:35 AM 30.2 °F 20.8 °F 26.6 °F 86% 30.09 in 10.0 mi ENE 11.5 mph - N/A   Clear
12:55 AM 30.2 °F 20.8 °F 24.8 °F 80% 30.08 in 10.0 mi NE 11.5 mph - N/A   Clear
1:15 AM 30.2 °F 20.2 °F 26.6 °F 86% 30.08 in 10.0 mi NE 12.7 mph - N/A   Clear
1:35 AM 30.2 °F 21.3 °F 24.8 °F 80% 30.07 in 10.0 mi ENE 10.4 mph - N/A   Clear
1:55 AM 30.2 °F 21.9 °F 24.8 °F 80% 30.08 in 10.0 mi ENE 9.2 mph - N/A   Clear
2:15 AM 30.2 °F 21.3 °F 24.8 °F 80% 30.07 in 10.0 mi ENE 10.4 mph - N/A   Clear
2:35 AM 30.2 °F 22.6 °F 26.6 °F 86% 30.07 in 10.0 mi ENE 8.1 mph - N/A   Clear
2:55 AM 30.2 °F 21.3 °F 24.8 °F 80% 30.06 in 10.0 mi ENE 10.4 mph - N/A   Clear
3:15 AM 30.2 °F 20.8 °F 26.6 °F 86% 30.06 in 10.0 mi ENE 11.5 mph - N/A   Clear
3:35 AM 30.2 °F 19.8 °F 24.8 °F 80% 30.05 in 10.0 mi ENE 13.8 mph - N/A   Clear
3:55 AM 28.4 °F 19.1 °F 24.8 °F 86% 30.05 in 10.0 mi NE 10.4 mph - N/A   Clear
4:15 AM 28.4 °F 18.5 °F 24.8 °F 86% 30.04 in 10.0 mi NE 11.5 mph - N/A   Clear
4:35 AM 28.4 °F 19.7 °F 24.8 °F 86% 30.04 in 10.0 mi NE 9.2 mph - N/A   Clear
4:55 AM 28.4 °F 18.5 °F 24.8 °F 86% 30.03 in 10.0 mi ENE 11.5 mph - N/A   Clear
5:15 AM 28.4 °F 18.5 °F 24.8 °F 86% 30.03 in 10.0 mi ENE 11.5 mph - N/A   Clear
5:35 AM 28.4 °F 19.1 °F 24.8 °F 86% 30.03 in 10.0 mi ENE 10.4 mph - N/A   Clear
5:55 AM 28.4 °F 18.0 °F 24.8 °F 86% 30.02 in 10.0 mi ENE 12.7 mph - N/A   Clear
6:15 AM 28.4 °F 19.7 °F 24.8 °F 86% 30.02 in 10.0 mi ENE 9.2 mph - N/A   Clear
6:35 AM 28.4 °F 19.7 °F 24.8 °F 86% 30.02 in 10.0 mi ENE 9.2 mph - N/A   Clear
6:55 AM 28.4 °F 20.4 °F 24.8 °F 86% 30.02 in 10.0 mi East 8.1 mph - N/A   Clear
7:15 AM 28.4 °F 19.7 °F 24.8 °F 86% 30.01 in 10.0 mi ENE 9.2 mph - N/A   Clear
7:35 AM 28.4 °F 19.7 °F 24.8 °F 86% 30.00 in 10.0 mi ENE 9.2 mph - N/A   Clear
7:55 AM 30.2 °F 21.9 °F 26.6 °F 86% 30.00 in 10.0 mi ENE 9.2 mph - N/A   Clear
8:15 AM 30.2 °F 20.8 °F 28.4 °F 93% 30.00 in 10.0 mi NE 11.5 mph - N/A   Clear
8:35 AM 33.8 °F 23.2 °F 26.6 °F 75% 29.99 in 10.0 mi NNE 17.3 mph - N/A   Clear
8:55 AM 33.8 °F 23.9 °F 28.4 °F 81% 29.99 in 10.0 mi NNE 15.0 mph - N/A   Clear
9:15 AM 33.8 °F 24.3 °F 28.4 °F 81% 29.99 in 10.0 mi NE 13.8 mph - N/A   Partly Cloudy
9:35 AM 35.6 °F 24.5 °F 28.4 °F 75% 29.98 in 10.0 mi NNE 20.7 mph - N/A   Partly Cloudy
9:55 AM 35.6 °F 25.9 °F 28.4 °F 75% 29.97 in 10.0 mi NNE 16.1 mph 24.2 mph N/A   Clear
10:35 AM 35.6 °F 25.5 °F 28.4 °F 75% 29.95 in 10.0 mi NNE 17.3 mph 20.7 mph N/A   Clear
10:55 AM 35.6 °F 25.9 °F 28.4 °F 75% 29.94 in 10.0 mi NNE 16.1 mph 21.9 mph N/A   Clear
11:15 AM 35.6 °F 25.9 °F 28.4 °F 75% 29.92 in 10.0 mi NE 16.1 mph - N/A   Clear
11:35 AM 35.6 °F 25.5 °F 28.4 °F 75% 29.90 in 10.0 mi NE 17.3 mph - N/A   Clear
11:55 AM 35.6 °F 26.6 °F 28.4 °F 75% 29.90 in 10.0 mi NNE 13.8 mph 20.7 mph N/A   Clear
12:15 PM 37.4 °F 28.5 °F 28.4 °F 70% 29.89 in 10.0 mi NNE 15.0 mph - N/A   Clear
12:35 PM 37.4 °F 27.8 °F 28.4 °F 70% 29.88 in 10.0 mi NNE 17.3 mph - N/A   Clear
12:55 PM 37.4 °F 28.5 °F 28.4 °F 70% 29.88 in 10.0 mi NNE 15.0 mph - N/A   Clear
1:15 PM 37.4 °F 28.5 °F 28.4 °F 70% 29.86 in 10.0 mi NE 15.0 mph - N/A   Scattered Clouds
1:35 PM 37.4 °F 28.5 °F 28.4 °F 70% 29.86 in 10.0 mi NNE 15.0 mph - N/A   Mostly Cloudy
1:55 PM 37.4 °F 27.5 °F 28.4 °F 70% 29.84 in 10.0 mi NE 18.4 mph - N/A   Mostly Cloudy
2:15 PM 37.4 °F 28.9 °F 28.4 °F 70% 29.84 in 10.0 mi NNE 13.8 mph - N/A   Mostly Cloudy
2:35 PM 37.4 °F 28.9 °F 28.4 °F 70% 29.83 in 10.0 mi NNE 13.8 mph - N/A   Mostly Cloudy
2:55 PM 37.4 °F 28.9 °F 28.4 °F 70% 29.83 in 10.0 mi NE 13.8 mph - N/A   Mostly Cloudy
3:15 PM 35.6 °F 27.1 °F 28.4 °F 75% 29.83 in 10.0 mi NE 12.7 mph - N/A   Overcast
3:35 PM 35.6 °F 26.2 °F 28.4 °F 75% 29.82 in 10.0 mi NNE 15.0 mph 20.7 mph N/A   Overcast
3:55 PM 35.6 °F 26.2 °F 28.4 °F 75% 29.82 in 10.0 mi NE 15.0 mph - N/A   Overcast
4:15 PM 35.6 °F 26.2 °F 28.4 °F 75% 29.80 in 10.0 mi NE 15.0 mph - N/A   Overcast
4:35 PM 35.6 °F 27.1 °F 28.4 °F 75% 29.80 in 10.0 mi NNE 12.7 mph - N/A   Mostly Cloudy
4:55 PM 35.6 °F 27.5 °F 28.4 °F 75% 29.80 in 10.0 mi NNE 11.5 mph - N/A   Overcast
5:15 PM 37.4 °F 30.3 °F 28.4 °F 70% 29.81 in 10.0 mi NE 10.4 mph - N/A   Overcast
5:35 PM 35.6 °F 28.0 °F 28.4 °F 75% 29.81 in 10.0 mi ENE 10.4 mph - N/A   Overcast
5:55 PM 35.6 °F 29.2 °F 30.2 °F 81% 29.82 in 10.0 mi NNE 8.1 mph - N/A   Overcast
6:15 PM 35.6 °F 32.8 °F 30.2 °F 81% 29.83 in 10.0 mi NE 3.5 mph - N/A   Overcast
6:35 PM 35.6 °F 32.8 °F 28.4 °F 75% 29.84 in 10.0 mi North 3.5 mph - N/A   Overcast
6:55 PM 35.6 °F 32.8 °F 30.2 °F 81% 29.84 in 10.0 mi NNE 3.5 mph - N/A   Overcast
7:15 PM 35.6 °F 29.2 °F 30.2 °F 81% 29.84 in 9.0 mi ENE 8.1 mph - N/A   Overcast
7:35 PM 35.6 °F 30.7 °F 30.2 °F 81% 29.84 in 10.0 mi East 5.8 mph - N/A   Overcast
7:55 PM 33.8 °F 28.6 °F 30.2 °F 87% 29.83 in 10.0 mi NNE 5.8 mph - N/A   Overcast
8:15 PM 33.8 °F 28.6 °F 30.2 °F 87% 29.83 in 10.0 mi North 5.8 mph - N/A   Overcast
8:35 PM 33.8 °F 28.6 °F 32.0 °F 93% 29.84 in 10.0 mi NNE 5.8 mph - N/A   Overcast
8:55 PM 35.6 °F 29.2 °F 32.0 °F 87% 29.83 in 10.0 mi NE 8.1 mph - N/A   Overcast
9:15 PM 35.6 °F 29.9 °F 32.0 °F 87% 29.84 in 10.0 mi ENE 6.9 mph - N/A   Overcast
9:35 PM 33.8 °F 29.6 °F 32.0 °F 93% 29.84 in 10.0 mi ENE 4.6 mph - N/A   Overcast
9:55 PM 35.6 °F 31.7 °F 32.0 °F 87% 29.85 in 8.0 mi East 4.6 mph - N/A   Overcast
10:15 PM 33.8 °F 27.0 °F 32.0 °F 93% 29.85 in 10.0 mi East 8.1 mph - N/A   Overcast
10:35 PM 35.6 °F 29.9 °F 32.0 °F 87% 29.85 in 7.0 mi ENE 6.9 mph - N/A   Overcast
10:55 PM 33.8 °F 26.4 °F 32.0 °F 93% 29.85 in 9.0 mi NE 9.2 mph - N/A   Overcast
11:15 PM 33.8 °F 27.0 °F 32.0 °F 93% 29.85 in 10.0 mi NNE 8.1 mph - N/A   Overcast
11:35 PM 35.6 °F 28.6 °F 33.8 °F 93% 29.85 in 10.0 mi NE 9.2 mph - N/A   Overcast
11:55 PM 33.8 °F 27.7 °F 33.8 °F 100% 29.85 in 10.0 mi NNE 6.9 mph - N/A   Overcast